FW2996 Weather Reports


Display with metric or nautical units.
time (UTC)temp
F
wind
direction
speed
MPH
gust
MPH
rain 1hr
in
rain 24hr
in
rain mn
in
humidity
%
barometer
mb
20260902130344 76 298 0.0 1.0 0.00 0.00 0.00 83 1057.5
20260902125838 75 320 0.0 1.0 0.00 0.00 0.00 84 1057.3
20260902125334 75 321 0.0 0.0 0.00 0.00 0.00 84 1057.2
20260902124831 74 321 0.0 0.0 0.00 0.00 0.00 84 1057.0
20260902124327 74 321 0.0 0.0 0.00 0.00 0.00 84 1057.2
20260902123827 74 321 0.0 1.0 0.00 0.00 0.00 84 1056.9
20260902123323 74 321 0.0 1.0 0.00 0.00 0.00 84 1057.0
20260902122821 74 321 1.0 1.0 0.00 0.00 0.00 85 1056.9
20260902122318 74 321 0.0 0.0 0.00 0.00 0.00 85 1056.7
20260902121817 74 321 0.0 0.0 0.00 0.00 0.00 85 1056.7
20260902121313 73 321 0.0 0.0 0.00 0.00 0.00 85 1056.8
20260902120808 73 321 0.0 0.0 0.00 0.00 0.00 86 1056.8
20260902120305 73 321 0.0 0.0 0.00 0.00 0.00 85 1057.2
20260902115759 74 321 0.0 0.0 0.00 0.00 0.00 84 1056.9
20260902115255 74 321 0.0 0.0 0.00 0.00 0.00 84 1057.0
20260902114751 74 321 0.0 1.0 0.00 0.00 0.00 85 1056.8
20260902114248 74 321 0.0 0.0 0.00 0.00 0.00 84 1056.7
20260902113742 75 321 0.0 0.0 0.00 0.00 0.00 82 1056.6
20260902113237 75 321 0.0 0.0 0.00 0.00 0.00 81 1056.6
20260902112736 76 321 0.0 0.0 0.00 0.00 0.00 81 1056.5
20260902112234 76 321 0.0 0.0 0.00 0.00 0.00 80 1056.6
20260902111728 76 321 0.0 0.0 0.00 0.00 0.00 79 1056.6
20260902111224 77 321 0.0 1.0 0.00 0.00 0.00 79 1056.7
20260902110720 77 321 0.0 1.0 0.00 0.00 0.00 78 1056.7
20260902110216 77 321 0.0 0.0 0.00 0.00 0.00 79 1056.4
20260902105710 77 321 0.0 0.0 0.00 0.00 0.00 79 1056.6
20260902105205 77 321 0.0 0.0 0.00 0.00 0.00 78 1056.5
20260902104700 77 321 0.0 0.0 0.00 0.00 0.00 77 1056.6
20260902104156 77 321 0.0 0.0 0.00 0.00 0.00 77 1056.4
20260902103654 78 321 0.0 1.0 0.00 0.00 0.00 76 1056.4
20260902103150 78 307 1.0 2.0 0.00 0.00 0.00 76 1056.6
20260902102647 78 327 2.0 4.0 0.00 0.00 0.00 76 1056.3
20260902102144 78 269 2.0 3.0 0.00 0.00 0.00 77 1056.5
20260902101639 78 280 0.0 4.0 0.00 0.00 0.00 76 1056.5
20260902101138 78 284 1.0 3.0 0.00 0.00 0.00 76 1056.4
20260902100633 79 330 2.0 4.0 0.00 0.00 0.00 76 1056.4
20260902100128 79 239 2.0 6.0 0.00 0.00 0.00 76 1056.3
20260902095627 79 315 3.0 7.0 0.00 0.00 0.00 76 1056.3
20260902095126 79 216 3.0 8.0 0.00 0.00 0.00 77 1056.4
20260902094621 78 253 3.0 6.0 0.00 0.00 0.00 77 1056.4
20260902094118 79 289 3.0 8.0 0.00 0.00 0.00 77 1056.5
20260902093611 79 216 5.0 8.0 0.00 0.00 0.00 77 1056.3
20260902093106 79 231 7.0 9.0 0.00 0.00 0.00 77 1056.4
20260902092601 79 250 4.0 9.0 0.00 0.00 0.00 78 1056.4
20260902092056 79 247 3.0 8.0 0.00 0.00 0.00 77 1056.4
20260902091551 79 267 5.0 8.0 0.00 0.00 0.00 77 1056.3
20260902091047 79 238 3.0 7.0 0.00 0.00 0.00 77 1056.5
20260902090542 79 269 4.0 7.0 0.00 0.00 0.00 77 1056.4
20260902090041 79 244 3.0 6.0 0.00 0.00 0.00 77 1056.5
20260902085536 79 235 3.0 7.0 0.00 0.00 0.00 77 1056.4
20260902085032 78 254 4.0 6.0 0.00 0.00 0.00 77 1056.4
20260902084528 79 250 1.0 3.0 0.00 0.00 0.00 77 1056.7
20260902084023 79 204 4.0 4.0 0.00 0.00 0.00 76 1056.8
20260902083518 79 250 6.0 7.0 0.00 0.00 0.00 76 1056.6
20260902083012 79 220 4.0 7.0 0.00 0.00 0.00 76 1056.6
20260902082508 79 241 5.0 7.0 0.00 0.00 0.00 76 1056.6
20260902082004 79 237 2.0 4.0 0.00 0.00 0.00 76 1056.7
20260902081501 79 239 3.0 6.0 0.00 0.00 0.00 75 1056.9
20260902081000 79 240 2.0 6.0 0.00 0.00 0.00 75 1056.6
20260902080457 79 154 1.0 3.0 0.00 0.00 0.00 75 1056.8
20260902075956 79 185 1.0 2.0 0.00 0.00 0.00 75 1056.6
20260902075452 80 204 0.0 2.0 0.00 0.00 0.00 74 1056.7
20260902074948 80 232 2.0 3.0 0.00 0.00 0.00 74 1056.5
20260902074443 80 211 1.0 2.0 0.00 0.00 0.00 74 1056.7
20260902073938 80 231 2.0 3.0 0.00 0.00 0.00 74 1056.7
20260902073434 80 229 4.0 4.0 0.00 0.00 0.00 73 1056.7
20260902072930 80 236 2.0 3.0 0.00 0.00 0.00 73 1056.8
20260902072426 80 235 2.0 4.0 0.00 0.00 0.00 74 1056.8
20260902071922 80 244 2.0 6.0 0.00 0.00 0.00 74 1056.8
20260902071421 80 241 2.0 3.0 0.00 0.00 0.00 75 1056.8
20260902070918 80 242 2.0 3.0 0.00 0.00 0.00 76 1056.8
20260902070414 80 237 2.0 3.0 0.00 0.00 0.00 76 1057.0
20260902065912 80 233 1.0 4.0 0.00 0.00 0.00 76 1056.9
20260902065407 80 191 0.0 1.0 0.00 0.00 0.00 76 1056.9
20260902064903 80 217 2.0 3.0 0.00 0.00 0.00 76 1056.9
20260902064358 80 180 2.0 3.0 0.00 0.00 0.00 76 1057.0
20260902063854 80 294 1.0 6.0 0.00 0.00 0.00 75 1057.0
20260902063349 80 205 2.0 3.0 0.00 0.00 0.00 74 1056.8
20260902062849 80 182 1.0 4.0 0.00 0.00 0.00 75 1056.9
20260902062348 80 185 2.0 3.0 0.00 0.00 0.00 75 1056.8
20260902061848 80 227 2.0 3.0 0.00 0.00 0.00 76 1057.0
20260902061343 80 127 1.0 2.0 0.00 0.00 0.00 75 1057.0
20260902060839 81 203 2.0 4.0 0.00 0.00 0.00 75 1057.3
20260902060335 81 231 1.0 4.0 0.00 0.00 0.00 75 1057.0
20260902055830 81 147 1.0 3.0 0.00 0.00 0.00 75 1057.0
20260902055326 81 147 2.0 3.0 0.00 0.00 0.00 75 1057.2
20260902054822 81 156 5.0 7.0 0.00 0.00 0.00 75 1057.0
20260902054317 81 180 2.0 4.0 0.00 0.00 0.00 75 1057.2
20260902053812 81 198 4.0 6.0 0.00 0.00 0.00 74 1056.9
20260902053307 81 207 3.0 4.0 0.00 0.00 0.00 74 1057.0
20260902052806 81 171 5.0 6.0 0.00 0.00 0.00 74 1057.2
20260902052306 81 171 2.0 7.0 0.00 0.00 0.00 74 1057.0
20260902051801 82 157 2.0 3.0 0.00 0.00 0.00 74 1057.0
20260902051255 82 161 3.0 4.0 0.00 0.00 0.00 73 1057.0
20260902050751 82 138 2.0 4.0 0.00 0.00 0.00 72 1057.0
20260902050246 82 186 2.0 6.0 0.00 0.00 0.00 72 1056.8
20260902045745 82 135 2.0 6.0 0.00 0.00 0.00 72 1056.9
20260902045242 82 168 3.0 4.0 0.00 0.00 0.00 71 1056.7
20260902044737 82 157 2.0 4.0 0.00 0.00 0.00 70 1056.9
20260902044232 83 172 3.0 4.0 0.00 0.00 0.00 70 1056.7
20260902043727 83 164 2.0 3.0 0.00 0.00 0.00 70 1057.0
20260902043223 83 176 3.0 4.0 0.00 0.00 0.00 69 1057.2
20260902042722 83 114 2.0 4.0 0.00 0.00 0.00 69 1056.8
20260902042217 83 135 2.0 4.0 0.00 0.00 0.00 68 1057.0
20260902041712 83 149 1.0 8.0 0.00 0.00 0.00 67 1057.0
20260902041207 84 120 3.0 6.0 0.00 0.00 0.00 67 1056.9
20260902040706 84 154 4.0 6.0 0.00 0.00 0.00 67 1056.9
20260902040202 84 165 2.0 6.0 0.00 0.00 0.00 66 1057.0
20260902035700 84 144 3.0 8.0 0.00 0.00 0.00 66 1056.9
20260902035156 84 147 3.0 4.0 0.00 0.00 0.00 66 1056.9
20260902034655 83 167 4.0 6.0 0.00 0.00 0.00 66 1056.7
20260902034154 84 142 2.0 6.0 0.00 0.00 0.00 66 1056.7
20260902033653 83 130 4.0 4.0 0.00 0.00 0.00 66 1056.7
20260902033148 83 121 1.0 2.0 0.00 0.00 0.00 66 1056.8
20260902032647 83 111 1.0 1.0 0.00 0.00 0.00 66 1056.6
20260902032142 84 111 1.0 2.0 0.00 0.00 0.00 66 1056.5
20260902031641 84 111 1.0 2.0 0.00 0.00 0.00 65 1056.4
20260902031138 84 111 1.0 2.0 0.00 0.00 0.00 65 1056.3
20260902030633 84 111 2.0 3.0 0.00 0.00 0.00 65 1056.3
20260902030132 84 120 1.0 1.0 0.00 0.00 0.00 65 1056.2
20260902025632 84 120 0.0 1.0 0.00 0.00 0.00 64 1056.1
20260902025128 85 120 2.0 3.0 0.00 0.00 0.00 63 1055.9
20260902024623 85 131 1.0 3.0 0.00 0.00 0.00 63 1055.9
20260902024117 85 101 2.0 3.0 0.00 0.00 0.00 63 1055.7
20260902023613 85 112 2.0 3.0 0.00 0.00 0.00 63 1055.6
20260902023108 85 106 1.0 1.0 0.00 0.00 0.00 63 1055.4
20260902022608 86 106 1.0 2.0 0.00 0.00 0.00 63 1055.5
20260902022104 86 105 1.0 1.0 0.00 0.00 0.00 61 1055.4
20260902021559 87 119 1.0 3.0 0.00 0.00 0.00 60 1055.3
20260902021053 87 131 2.0 6.0 0.00 0.00 0.00 60 1055.1
20260902020549 87 122 2.0 6.0 0.00 0.00 0.00 59 1055.2
20260902020045 87 141 3.0 4.0 0.00 0.00 0.00 59 1055.2
20260902015541 87 121 1.0 4.0 0.00 0.00 0.00 59 1055.0
20260902015036 88 168 5.0 6.0 0.00 0.00 0.00 59 1055.1
20260902014532 88 167 3.0 4.0 0.00 0.00 0.00 58 1055.1
20260902014028 88 140 4.0 8.0 0.00 0.00 0.00 57 1055.1
20260902013522 88 152 3.0 3.0 0.00 0.00 0.00 58 1054.9
20260902013018 88 182 2.0 3.0 0.00 0.00 0.00 57 1054.9
20260902012513 89 177 2.0 3.0 0.00 0.00 0.00 57 1054.8
20260902012009 89 186 2.0 4.0 0.00 0.00 0.00 56 1054.8
20260902011504 89 122 2.0 3.0 0.00 0.00 0.00 56 1054.7
20260902011003 89 156 2.0 4.0 0.00 0.00 0.00 55 1054.7
20260902010458 90 161 2.0 3.0 0.00 0.00 0.00 55 1054.8
20260902005957 90 132 2.0 6.0 0.00 0.00 0.00 55 1054.7
20260902005456 90 137 2.0 3.0 0.00 0.00 0.00 54 1054.7
20260902004953 90 130 2.0 6.0 0.00 0.00 0.00 54 1054.7
20260902004452 90 133 3.0 6.0 0.00 0.00 0.00 54 1054.7
20260902003948 91 135 4.0 7.0 0.00 0.00 0.00 53 1054.8
20260902003448 91 147 3.0 6.0 0.00 0.00 0.00 53 1054.8
20260902002943 91 126 5.0 8.0 0.00 0.00 0.00 52 1054.9
20260902002438 91 152 3.0 9.0 0.00 0.00 0.00 52 1054.7
20260902001937 92 143 6.0 9.0 0.00 0.00 0.00 51 1054.8
20260902001432 92 151 2.0 4.0 0.00 0.00 0.00 50 1054.9
20260902000928 93 141 7.0 9.0 0.00 0.00 0.00 49 1054.8
20260902000423 93 147 7.0 13.0 0.00 0.00 0.00 48 1054.7
20260901235918 93 126 8.0 9.0 0.00 0.00 0.00 47 1054.8
20260901235413 94 129 3.0 8.0 0.00 0.00 0.00 46 1054.8
20260901234908 94 156 3.0 6.0 0.00 0.00 0.00 45 1054.7
20260901234402 94 121 3.0 6.0 0.00 0.00 0.00 44 1054.5
20260901233857 94 124 2.0 6.0 0.00 0.00 0.00 44 1054.6
20260901233352 94 98 0.0 2.0 0.00 0.00 0.00 44 1054.7
20260901232848 95 79 2.0 6.0 0.00 0.00 0.00 44 1054.5
20260901232342 95 80 1.0 2.0 0.00 0.00 0.00 44 1054.6
20260901231838 95 70 1.0 7.0 0.00 0.00 0.00 43 1054.5
20260901231335 95 74 4.0 7.0 0.00 0.00 0.00 43 1054.5
20260901230831 96 52 2.0 7.0 0.00 0.00 0.00 42 1054.6
20260901230331 96 79 4.0 9.0 0.00 0.00 0.00 42 1054.6
20260901225826 96 47 4.0 6.0 0.00 0.00 0.00 42 1054.5
20260901225325 97 187 5.0 11.0 0.00 0.00 0.00 43 1054.5
20260901224820 97 100 2.0 7.0 0.00 0.00 0.00 42 1054.5
20260901224317 96 66 6.0 8.0 0.00 0.00 0.00 42 1054.7
20260901223813 97 125 1.0 4.0 0.00 0.00 0.00 41 1054.4
20260901223308 96 138 4.0 7.0 0.00 0.00 0.00 40 1054.6
20260901222804 97 183 6.0 7.0 0.00 0.00 0.00 40 1054.6
20260901222300 96 147 5.0 9.0 0.00 0.00 0.00 40 1054.4
20260901221756 96 34 4.0 9.0 0.00 0.00 0.00 40 1054.6
20260901221250 97 137 8.0 11.0 0.00 0.00 0.00 40 1054.7
20260901220750 98 63 1.0 4.0 0.00 0.00 0.00 39 1054.5
20260901220249 96 117 0.0 2.0 0.00 0.00 0.00 39 1054.6
20260901215748 96 71 1.0 4.0 0.00 0.00 0.00 40 1054.8
20260901215248 96 138 7.0 8.0 0.00 0.00 0.00 39 1054.7
20260901214746 96 115 5.0 6.0 0.00 0.00 0.00 41 1054.7
20260901214245 96 179 4.0 7.0 0.00 0.00 0.00 42 1054.8
20260901213741 95 147 4.0 7.0 0.00 0.00 0.00 42 1054.9
20260901213241 95 141 4.0 9.0 0.00 0.00 0.00 44 1054.8
20260901212740 97 136 11.0 14.0 0.00 0.00 0.00 43 1054.7
20260901212236 97 128 2.0 4.0 0.00 0.00 0.00 43 1054.8
20260901211731 98 153 8.0 9.0 0.00 0.00 0.00 42 1054.8
20260901211227 98 213 2.0 6.0 0.00 0.00 0.00 43 1054.8
20260901210724 97 178 3.0 8.0 0.00 0.00 0.00 43 1055.1
20260901210219 96 119 5.0 6.0 0.00 0.00 0.00 44 1055.2
20260901205715 96 61 1.0 3.0 0.00 0.00 0.00 44 1055.3
20260901205209 95 129 10.0 11.0 0.00 0.00 0.00 44 1055.4
20260901204705 96 182 4.0 7.0 0.00 0.00 0.00 44 1055.5
20260901204200 95 222 1.0 2.0 0.00 0.00 0.00 43 1055.5
20260901203655 96 207 4.0 7.0 0.00 0.00 0.00 46 1055.5
20260901203151 97 119 6.0 9.0 0.00 0.00 0.00 44 1055.7
20260901202649 97 61 4.0 9.0 0.00 0.00 0.00 44 1055.6
20260901202146 96 33 4.0 14.0 0.00 0.00 0.00 47 1055.8
20260901201641 95 80 1.0 7.0 0.00 0.00 0.00 47 1055.7
20260901201140 96 206 2.0 7.0 0.00 0.00 0.00 45 1055.8
20260901200639 99 112 4.0 6.0 0.00 0.00 0.00 44 1056.3
20260901200134 96 195 4.0 9.0 0.00 0.00 0.00 46 1056.1
20260901195633 96 166 4.0 8.0 0.00 0.00 0.00 46 1056.3
20260901195132 95 137 3.0 10.0 0.00 0.00 0.00 45 1056.2
20260901194628 94 120 5.0 7.0 0.00 0.00 0.00 49 1056.4
20260901194122 95 180 5.0 9.0 0.00 0.00 0.00 47 1056.3
20260901193619 95 207 5.0 8.0 0.00 0.00 0.00 48 1056.4
20260901193113 95 254 1.0 6.0 0.00 0.00 0.00 47 1056.3
20260901192608 95 135 4.0 6.0 0.00 0.00 0.00 48 1056.5
20260901192103 95 137 5.0 8.0 0.00 0.00 0.00 48 1056.4
20260901191559 98 157 3.0 7.0 0.00 0.00 0.00 44 1056.4
20260901191055 95 238 3.0 7.0 0.00 0.00 0.00 45 1056.6
20260901190550 95 147 6.0 8.0 0.00 0.00 0.00 47 1056.6
20260901190049 93 55 2.0 3.0 0.00 0.00 0.00 48 1056.6
20260901185543 96 120 6.0 9.0 0.00 0.00 0.00 46 1056.8
20260901185042 95 130 3.0 7.0 0.00 0.00 0.00 46 1056.9
20260901184537 95 102 4.0 13.0 0.00 0.00 0.00 48 1057.0
20260901184032 95 223 2.0 6.0 0.00 0.00 0.00 47 1057.2
20260901183527 95 75 0.0 4.0 0.00 0.00 0.00 47 1057.0
20260901183022 94 61 4.0 9.0 0.00 0.00 0.00 49 1057.3
20260901182518 96 82 3.0 8.0 0.00 0.00 0.00 47 1057.3
20260901182018 94 131 2.0 4.0 0.00 0.00 0.00 49 1057.5
20260901181518 94 178 2.0 4.0 0.00 0.00 0.00 50 1057.6
20260901181012 92 170 4.0 10.0 0.00 0.00 0.00 53 1057.7
20260901180511 93 120 4.0 10.0 0.00 0.00 0.00 51 1057.6
20260901180010 95 124 2.0 4.0 0.00 0.00 0.00 49 1057.9
20260901175504 94 241 2.0 6.0 0.00 0.00 0.00 49 1057.8
20260901174959 92 144 2.0 7.0 0.00 0.00 0.00 52 1058.0
20260901174454 92 176 3.0 8.0 0.00 0.00 0.00 52 1058.1
20260901173950 91 129 6.0 9.0 0.00 0.00 0.00 53 1058.1
20260901173446 90 110 6.0 7.0 0.00 0.00 0.00 54 1058.2
20260901172942 91 61 1.0 4.0 0.00 0.00 0.00 53 1058.0
20260901172437 90 143 2.0 3.0 0.00 0.00 0.00 56 1058.3
20260901171935 90 145 3.0 6.0 0.00 0.00 0.00 56 1058.5
20260901171433 91 101 1.0 8.0 0.00 0.00 0.00 55 1058.4
20260901170932 93 166 4.0 8.0 0.00 0.00 0.00 53 1058.5
20260901170427 91 70 1.0 4.0 0.00 0.00 0.00 54 1058.5
20260901165926 93 121 2.0 3.0 0.00 0.00 0.00 52 1058.6
20260901165421 93 64 1.0 2.0 0.00 0.00 0.00 52 1058.5
20260901164918 91 207 4.0 9.0 0.00 0.00 0.00 56 1058.7
20260901164413 91 170 3.0 3.0 0.00 0.00 0.00 55 1058.7
20260901163913 91 88 2.0 7.0 0.00 0.00 0.00 55 1058.8
20260901163407 89 96 4.0 8.0 0.00 0.00 0.00 58 1058.6
20260901162903 91 176 1.0 4.0 0.00 0.00 0.00 55 1058.7
20260901162403 91 140 3.0 6.0 0.00 0.00 0.00 54 1058.7
20260901161901 91 84 1.0 4.0 0.00 0.00 0.00 55 1059.0
20260901161355 90 122 5.0 8.0 0.00 0.00 0.00 56 1059.0
20260901160850 90 202 2.0 3.0 0.00 0.00 0.00 54 1058.9
20260901160347 90 135 1.0 3.0 0.00 0.00 0.00 56 1059.0
20260901155846 90 122 4.0 6.0 0.00 0.00 0.00 55 1059.0
20260901155340 90 76 2.0 8.0 0.00 0.00 0.00 56 1058.8
20260901154837 91 153 4.0 6.0 0.00 0.00 0.00 55 1058.9
20260901154336 89 71 0.0 2.0 0.00 0.00 0.00 58 1058.7
20260901153831 88 156 2.0 3.0 0.00 0.00 0.00 58 1058.8
20260901153325 89 115 1.0 4.0 0.00 0.00 0.00 58 1058.8
20260901152824 89 230 0.0 1.0 0.00 0.00 0.00 58 1058.8
20260901152323 90 248 4.0 4.0 0.00 0.00 0.00 60 1059.0
20260901151814 88 1 0.0 1.0 0.00 0.00 0.00 62 1059.0
20260901151314 87 30 2.0 2.0 0.00 0.00 0.00 65 1058.9
20260901150808 87 231 1.0 3.0 0.00 0.00 0.00 67 1059.0
20260901150306 87 228 1.0 3.0 0.00 0.00 0.00 66 1058.8
20260901145803 86 242 2.0 3.0 0.00 0.00 0.00 67 1058.8
20260901145257 86 290 3.0 3.0 0.00 0.00 0.00 71 1058.6
20260901144753 86 265 2.0 2.0 0.00 0.00 0.00 71 1059.0
20260901144249 86 130 3.0 3.0 0.00 0.00 0.00 71 1058.9
20260901143744 85 161 0.0 1.0 0.00 0.00 0.00 72 1059.0
20260901143240 84 158 2.0 2.0 0.00 0.00 0.00 74 1059.0
20260901142737 85 154 0.0 1.0 0.00 0.00 0.00 74 1059.1
20260901142235 83 145 2.0 3.0 0.00 0.00 0.00 77 1059.2
20260901141731 83 237 2.0 3.0 0.00 0.00 0.00 79 1059.1
20260901141230 83 188 1.0 2.0 0.00 0.00 0.00 78 1059.2
20260901140729 82 254 2.0 3.0 0.00 0.00 0.00 80 1059.0
20260901140222 82 227 2.0 2.0 0.00 0.00 0.00 80 1059.2
20260901135718 82 257 3.0 8.0 0.00 0.00 0.00 82 1059.1
20260901135217 81 358 0.0 2.0 0.00 0.00 0.00 83 1059.0
20260901134713 80 255 3.0 3.0 0.00 0.00 0.00 84 1058.9
20260901134209 80 229 2.0 7.0 0.00 0.00 0.00 86 1058.8
20260901133708 79 200 5.0 7.0 0.00 0.00 0.00 87 1058.8
20260901133207 80 207 2.0 3.0 0.00 0.00 0.00 87 1058.7
20260901132701 79 240 4.0 6.0 0.00 0.00 0.00 88 1058.7
20260901132156 78 267 2.0 3.0 0.00 0.00 0.00 89 1058.7
20260901131655 78 275 1.0 6.0 0.00 0.00 0.00 90 1058.6
20260901131155 78 239 1.0 2.0 0.00 0.00 0.00 89 1058.6
20260901130650 78 252 0.0 0.0 0.00 0.00 0.00 88 1058.7